Location: Wildlife_Club
(35.6000°N, 81.4330°W)
Time: 23:31:30
(UTC-04:00)

A-11 Canister half - Pass Details

Date: 25 June 2019
Orbit: 1526 x 1683 km, 47.3° (Epoch: 19 July)

Event Time Altitude Azimuth Distance (km) Brightness Sun altitude
Exits shadow 03:40:31 33° 190° (S) 2,415 9.5 -23.2°
Maximum altitude 03:44:40 52° 135° (SE) 1,882 9.3 -22.8°
Drops below altitude 10° 03:53:38 10° 62° (ENE) 3,716 11.9 -21.7°
Sets 03:56:45 0° 58° (ENE) 4,690 12.7 -21.3°
